Showing default

NINGXIA-1 2, 44780

Orbit data source: Space-Track

NINGXIA-1 2, 44780 is a Chinese payload satellite in LEO that was launched on Wed, 13 Nov 2019 UTC via a CHANG ZHENG 6 launch vehicle from the Taiyaun Space Center, China (TSC). Payload-class satellites include a variety of spacecraft equipped with specific instruments for various scientific and technological missions. These include communications satellites like Starlink; space stations such as the ISS; scientific satellites like the Hubble; Earth observation satellites from companies like Planet Labs, Umbra, and HawkEye 360; GPS; miniature CubeSats for education and research; and military/defense satellites.

Loading next visibility...
Identifier
44780, 2019-076B
Orbit
LEO
Country
Flag of CNCN / PRC
Related business
Manufacturer
DFH
Mission
Operational Commercial Sigint
Bus & Motor
NX-1, Unknown motor
Mass
~100 kg wet, ~100 kg dry
Launch date (UTC)
2019-11-13 (6 years ago)
Launch vehicle
CHANG ZHENG 6
Launch site
Taiyaun Space Center, China (TSC)
Object type
Payload
Rocket body
Debris
Shape & HBR
Box + 2 Pan, Unknown HBR
Radar Cross Section
0.166 m², Medium (>0.1 m² and < 1m²)

Expand to show TLE details & history
Last TLE update: 11 hours ago

TLE from 11 hours ago
0 NINGXIA-1 2
1 44780U 19076B   25258.96241330 -.00000058  00000-0  46564-4 0  9999
2 44780  45.0097 325.5671 0007808 285.1319  74.8652 14.01957446299374
Epoch: 2025-09-15T23:05Z
TLE epoch observation values (Epoch: 2025-09-15T23:05:52.509Z)
Latitude
0.00005°
Longitude
-16.06118°
Altitude
885.548 km
Speed
7.412 km/s
True Right ascension
21h 42m 16s
True Declination
0° 00' 00"
Sunlit
Object was in full shadow at epoch
Visualization orbit readout
Latitude
Unknown
Longitude
Unknown
Altitude
Unknown
Speed
Unknown
Apparent Right ascension
Unknown
Apparent Declination
Unknown
Sunlit
N/A
Visualization observer readout
Local Sidereal Time
02:23:56
Azimuth
Unknown
Elevation
Unknown
Doppler factor
Unknown
Orbital elements
Apogee altitude
894.217 km
Perigee altitude
882.87 km
Semi-major axis
7,266.68 km
Eccentricity
0.00078
Inclination
45.0097°
RAAN
325.5671°
Arg. of periapsis
285.1319°
True anomaly
74.95159°
Mean anomaly
74.8652°
Eccentric anomaly
74.90839°
Mean motion
3.5038 °/min
Orbital period
102.75 mins
BSTAR
0.000046564
Loading maneuver chart data...
Computing Atmospheric mass density...
Loading historical data...
Loading historical data...
Loading historical data...
Loading historical data...
Loading historical data...
Loading historical data...
Loading historical data...
Other satellites on launch #76 in the year 2019 (2019-11-13 UTC)

Documentation

Showing up to 5 results
|